TimeEDT,TemperatureF,Dew PointF,Humidity,Sea Level PressureIn,VisibilityMPH,Wind Direction,Wind SpeedMPH,Gust SpeedMPH,PrecipitationIn,Events,Conditions,WindDirDegrees,DateUTC
12:53 AM,53.1,36.0,52,30.24,10.0,West,4.6,-,N/A,,Overcast,270,2013-03-30 04:53:00
1:53 AM,51.1,39.9,66,30.23,10.0,WSW,4.6,-,0.00,Rain,Light Rain,250,2013-03-30 05:53:00
2:53 AM,48.9,43.0,80,30.23,8.0,Calm,Calm,-,0.00,Rain,Light Rain,0,2013-03-30 06:53:00
3:53 AM,46.9,45.0,93,30.24,8.0,WSW,5.8,-,0.00,Rain,Light Rain,240,2013-03-30 07:53:00
4:53 AM,46.9,45.0,93,30.22,10.0,Calm,Calm,-,0.01,Rain,Light Rain,0,2013-03-30 08:53:00
5:53 AM,48.0,45.0,89,30.23,10.0,NNW,4.6,-,0.00,Rain,Light Rain,340,2013-03-30 09:53:00
6:53 AM,48.0,46.0,93,30.24,10.0,SSW,3.5,-,0.00,Rain,Light Rain,200,2013-03-30 10:53:00
7:53 AM,46.9,46.0,97,30.25,6.0,Calm,Calm,-,0.00,,Overcast,0,2013-03-30 11:53:00
8:53 AM,48.0,46.0,93,30.25,10.0,Calm,Calm,-,N/A,,Overcast,0,2013-03-30 12:53:00
9:53 AM,50.0,46.9,89,30.25,10.0,NE,4.6,-,N/A,,Overcast,40,2013-03-30 13:53:00
10:53 AM,54.0,46.9,77,30.24,10.0,ENE,5.8,-,N/A,,Clear,60,2013-03-30 14:53:00
11:53 AM,57.9,45.0,62,30.22,10.0,North,3.5,-,N/A,,Partly Cloudy,350,2013-03-30 15:53:00
12:53 PM,61.0,42.1,50,30.20,10.0,Variable,4.6,-,N/A,,Clear,0,2013-03-30 16:53:00
1:53 PM,62.1,43.0,50,30.17,10.0,SSW,4.6,-,N/A,,Scattered Clouds,210,2013-03-30 17:53:00
2:53 PM,64.0,42.1,45,30.15,10.0,Variable,3.5,-,N/A,,Partly Cloudy,0,2013-03-30 18:53:00
3:53 PM,64.0,42.1,45,30.13,10.0,Variable,3.5,-,N/A,,Scattered Clouds,0,2013-03-30 19:53:00
4:53 PM,64.0,42.1,45,30.12,10.0,West,4.6,-,N/A,,Partly Cloudy,280,2013-03-30 20:53:00
5:53 PM,64.9,41.0,42,30.11,10.0,SSE,3.5,-,N/A,,Scattered Clouds,150,2013-03-30 21:53:00
6:53 PM,64.0,42.1,45,30.11,10.0,Calm,Calm,-,N/A,,Partly Cloudy,0,2013-03-30 22:53:00
7:53 PM,59.0,45.0,60,30.12,10.0,Calm,Calm,-,N/A,,Clear,0,2013-03-30 23:53:00
8:53 PM,54.0,45.0,72,30.12,10.0,Calm,Calm,-,N/A,,Clear,0,2013-03-31 00:53:00
9:53 PM,55.0,45.0,69,30.12,10.0,Calm,Calm,-,N/A,,Clear,0,2013-03-31 01:53:00
10:53 PM,54.0,45.0,72,30.12,10.0,Calm,Calm,-,N/A,,Clear,0,2013-03-31 02:53:00
11:53 PM,54.0,46.0,75,30.11,10.0,Variable,3.5,-,N/A,,Clear,0,2013-03-31 03:53:00